| 
				
				
				
					
						
					 | 
				
				
				
					
					
					2007 VA85
					
					
					
					
						
					
					
						
							(Preview)
						
						
						
						
							
						
							
								The apparently asteroidal object  2007 VA85  has the shortest known orbital period (7.6 yr) for a orbiting  object with a retrograde orbit (i = 132.6 deg).  2007 VA85  was discovered by the LINEAR project.   IAUC 8894 (Authorisat...   
							 
							
						 
						
					
				 | 
				
					
						Blobrana
					 | 
				
				
					
						0
					 | 
				
				
				
					
						
					 | 
				
				
					
						
					 | 
				
			
		
			
			
				
				
					
						 
					 | 
				
				
				
					
						
					 | 
				
				
				
					
					
					2007 VW266
					
					
					
					
						
					
					
						
							(Preview)
						
						
						
						
							
						
							
								2007 VW266 was discovered on 12th November  by the Mt. Lemmon Survey. Orbital elements: 007 VW266 Epoch 2007 Oct. 27.0 TT = JDT 2454400.5                 MPC M 335.59704              (2000.0)            P               Q n   0.08120012     Peri.  225.48029     +0.13938689     +0.29598673 a   5.2815933      Node   276.50613     +0.93179886     -0.36218069 e   0.3668102      Incl....                    
							 
							
						 
						
					
				 | 
				
					
						Blobrana
					 | 
				
				
					
						0
					 | 
				
				
				
					
						
					 | 
				
				
					
						
					 | 
				
			
		
			
			
				
				
					
						 
					 | 
				
				
				
					
						
					 | 
				
				
				
					
					
					Comet P/2007 V1 (Larson)
					
					
					
					
						
					
					
						
							(Preview)
						
						
						
						
							
						
							
								Mr. Steve Larson discovered a magnitude 17.5 Comet, P/2007 V1 (Larson), on  images taken on November 08, 2007  by the  Catalina Sky Survey.  The orbital elements of the comet  indicate a perihelion passage on December 08, 2007 at a distance of 2,7 AU from...          
							 
							
						 
						
					
				 | 
				
					
						Blobrana
					 | 
				
				
					
						0
					 | 
				
				
				
					
						
					 | 
				
				
					
						
					 | 
				
			
		
			
			
				
				
					
						 
					 | 
				
				
				
					
						
					 | 
				
				
				
					
					
					2006 CD
					
					
					
					
						
					
					
						
							(Preview)
						
						
						
						
							
						
							
								Object  Designation     Year Range     Potential Impacts     Impact Prob. (cum.)     Vinfinity (km/s)     H (mag)     Est. Diam. (km)     Palermo Scale (cum.)     Palermo Scale (max.)     Torino Scale (max.)   2006 CD     2008-2105     60     3.8e-08      11.20     21.0     0.212     -4.83     -4.98      Earth Impact Risk Summary           Torino Scale (maximum)                    Palermo Scale...          
							 
							
						 
						
					
				 | 
				
					
						Blobrana
					 | 
				
				
					
						0
					 | 
				
				
				
					
						
					 | 
				
				
					
						
					 | 
				
			
		
			
			
				
				
					
						 
					 | 
				
				
				
					
						
					 | 
				
				
				
					
					
					C/2007 F1 (LONEOS)
					
					
					
					
						
					
					
						
							(Preview)
						
						
						
						
							
						
							
								C/2007 F1 (LONEOS)  ate    TT    R. A. (2000) Decl.     Delta      r     Elong.  Phase   m1    m2 2007 03 21    11 20.41   +20 35.9    2.798    3.737   157.3     5.9  18.0 2007 03 26    11 12.95   +21 42.8    2.770    3.678   151.5     7.4  17.9 2007 03 31    11 05.45   +22 46.0    2.752    3.618   145.4     9.0  17.8 2007 04 05    10 58.01   +23 44.8    2.742    3.559   139.0    10.6  17.7 2007 04 10    10... 
							 
							
						 
						
					
				 | 
				
					
						Blobrana
					 | 
				
				
					
						4
					 | 
				
				
				
					
						
					 | 
				
				
					
						
					 | 
				
			
		
			
			
				
				
					
						 
					 | 
				
				
				
					
						
					 | 
				
				
				
					
					
					Asteroid  7811 Zhaojiuzhang
					
					
					
					
						
					
					
						
							(Preview)
						
						
						
						
							
						
							
								An asteroid has been named after late Chinese geo-scientist Zhao Jiuzhang with the approval of the International Minor Planet Center (IMPC) and the International Minor Planet Nomenclature Committee (IMPNC). Asteroid No. 7811 was discovered on Feb. 23, 1982, by astronomers at the Purple Mounta...                    
							 
							
						 
						
					
				 | 
				
					
						Blobrana
					 | 
				
				
					
						0
					 | 
				
				
				
					
						
					 | 
				
				
					
						
					 | 
				
			
		
			
			
				
				
					
						 
					 | 
				
				
				
					
						
					 | 
				
				
				
					
					
					2007 TC14
					
					
					
					
						
					
					
						
							(Preview)
						
						
						
						
							
						
							
								2007 TC14 Earth Impact Risk Summary  Torino Scale (maximum)                    Palermo Scale (maximum)           -5.35         Palermo Scale (cumulative)           -5.35         Impact Probability (cumulative)           1.2e-07         Number of Potential Impacts           1 Results computed on Oct 25, 2007               2007 TC14        Earth Impact Table   Date     Distance     Width     Sigma Impact     Sigm...       
							 
							
						 
						
					
				 | 
				
					
						Blobrana
					 | 
				
				
					
						0
					 | 
				
				
				
					
						
					 | 
				
				
					
						
					 | 
				
			
		
			
			
				
				
					
						 
					 | 
				
				
				
					
						
					 | 
				
				
				
					
					
					Pallene
					
					
					
					
						
					
					
						
							(Preview)
						
						
						
						
							
						
							
								[url=http://static.flickr.com/1/128912956_7161424104_o.jpg]Ex... 
							 
							
						 
						
					
				 | 
				
					
						Blobrana
					 | 
				
				
					
						1
					 | 
				
				
				
					
						
					 | 
				
				
					
						
					 | 
				
			
		
			
			
				
				
					
						 
					 | 
				
				
				
					
						
					 | 
				
				
				
					
					
					Asteroid Chiayi
					
					
					
					
						
					
					
						
							(Preview)
						
						
						
						
							
						
							
								Astronomers in Taiwan have named a small astral body they discovered between Mars and Jupiter Chiayi after the county where their observatory is located. The International Committee on Small Body Nomenclature approved Lulin Observatory's application to give the 1.5-mile diameter chunk of roc... 
							 
							
						 
						
					
				 | 
				
					
						Blobrana
					 | 
				
				
					
						0
					 | 
				
				
				
					
						
					 | 
				
				
					
						
					 | 
				
			
		
			
			
				
				
					
						 
					 | 
				
				
				
					
						
					 | 
				
				
				
					
					
					Comet C/2007 T5 (Gibbs)
					
					
					
					
						
					
					
						
							(Preview)
						
						
						
						
							
						
							
								Two new comets have been  discovered by A. R. Gibbs, using the  0.68 meter CCD Schmidt telescope of  the Catalina Sky Survey.  The preliminary orbital elements of the comet C/2007 T4 (Gibbs), discovered on October 12, 2007, indicate a perihelion passage on August 11, 2007 at a distance of 2.2 AU from...      
							 
							
						 
						
					
				 | 
				
					
						Blobrana
					 | 
				
				
					
						0
					 | 
				
				
				
					
						
					 | 
				
				
					
						
					 | 
				
			
		
			
			
				
				
					
						 
					 | 
				
				
				
					
						
					 | 
				
				
				
					
					
					Comet C/2007 T4 (Gibbs)
					
					
					
					
						
					
					
						
							(Preview)
						
						
						
						
							
						
							
								Two new comets have been  discovered by A. R. Gibbs, using the  0.68 meter CCD Schmidt telescope of  the Catalina Sky Survey.  The preliminary orbital elements of the comet C/2007 T4 (Gibbs), discovered on October 12, 2007, indicate a perihelion passage on August 11, 2007 at a distance of 2.2 AU from...      
							 
							
						 
						
					
				 | 
				
					
						Blobrana
					 | 
				
				
					
						0
					 | 
				
				
				
					
						
					 | 
				
				
					
						
					 | 
				
			
		
			
			
				
				
					
						 
					 | 
				
				
				
					
						 
					 | 
				
				
				
					
					
					6344 P-L
					
					
					
					
						
					
					
						
							(Preview)
						
						
						
						
							
						
							
								For more than 40 years, an asteroid believed to be potentially dangerous to Earth has been essentially lost to view. But no more. The so-called 6344 P-L was first spotted in 1960, and given the designation Potentially Hazardous Asteroid  meaning that its orbit took it within .05 astronomical units (... 
							 
							
						 
						
					
				 | 
				
					
						Blobrana
					 | 
				
				
					
						2
					 | 
				
				
				
					
						
					 | 
				
				
					
						
					 | 
				
			
		
			
			
				
				
					
						 
					 | 
				
				
				
					
						
					 | 
				
				
				
					
					
					Comet P/1990 V1 (Shoemaker-Levy)
					
					
					
					
						
					
					
						
							(Preview)
						
						
						
						
							
						
							
								The comet P/1990 V1 (Shoemaker-Levy), which was last observed in January 1991, was recovered by  Rob H. McNaught  on the night of the 12th October  using the Siding Spring Survey.  The comet  was at magnitude 18.  The orbital elements of the comet P/2007 T3 (Shoemaker-Levy) indicate a perihelion pas... 
							 
							
						 
						
					
				 | 
				
					
						Blobrana
					 | 
				
				
					
						0
					 | 
				
				
				
					
						
					 | 
				
				
					
						
					 | 
				
			
		
			
			
				
				
					
						 
					 | 
				
				
				
					
						
					 | 
				
				
				
					
					
					Asteroid 2007 TK8
					
					
					
					
						
					
					
						
							(Preview)
						
						
						
						
							
						
							
								A new Amor asteroid, 2007 TK8, has been discovered  by the  Observatorio Pla D'Arguines and the  Catalina Sky Survey.  Read more 
							 
							
						 
						
					
				 | 
				
					
						Blobrana
					 | 
				
				
					
						1
					 | 
				
				
				
					
						
					 | 
				
				
					
						
					 | 
				
			
		
			
			
				
				
					
						 
					 | 
				
				
				
					
						
					 | 
				
				
				
					
					
					Asteroid 2007 TX22
					
					
					
					
						
					
					
						
							(Preview)
						
						
						
						
							
						
							
								A newly found asteroid 2007 TX22 is to flyby the Earth today, at a distance of about 0.38 lunar distances. 
							 
							
						 
						
					
				 | 
				
					
						Blobrana
					 | 
				
				
					
						1
					 | 
				
				
				
					
						
					 | 
				
				
					
						
					 |